{"data":{"norad_id":43079,"epoch":"2026-09-20T00:07:15.163104Z","epoch_age_seconds":58314,"freshness":"FRESH","line1":"1 43079U 17083K   26263.00503661 -.00000014  00000+0 -11900-4 0  9993","line2":"2 43079  86.3917 282.5398 0002157  92.2259 267.9184 14.34217136457690","mean_motion":14.34217136,"eccentricity":0.0002157,"inclination_deg":86.3917,"raan_deg":282.5398,"arg_perigee_deg":92.2259,"mean_anomaly_deg":267.9184,"bstar":-1.19e-5,"rev_number":45769,"period_min":100.40320700784,"perigee_km":776.12568926196,"apogee_km":779.2127040552,"semimajor_km":7155.8061966586,"source":"CELESTRAK","updated_at":"2026-09-20T09:00:36.328194Z"}}